Total_Precipitation_Accumulation
1.28 1.39 1.44 1.44 1.39 1.51 1.54 1.52 1.56 1.60 1.57 1.64 1.75 1.87 1.89 1.95 2.05 2.12 1.95 2.02 2.13 2.31 2.21 2.19 2.24 2.35 2.31 2.22 2.30 2.37 2.51 2.77 2.72 2.25 2.15 2.15 1.99 1.80 1.73 1.64 1.59 1.67 1.68
1.29 1.42 1.51 1.65 1.61 1.55 1.53 1.57 1.61 1.73 1.80 1.78 1.85 1.90 1.78 1.83 2.04 2.10 2.06 2.05 2.08 2.13 2.33 2.57 2.50 2.53 2.48 2.32 2.41 2.37 2.43 2.71 2.63 2.39 2.40 2.41 2.33 2.12 1.97 1.80 1.63 1.61 1.69
1.40 1.49 1.63 1.71 1.61 1.53 1.64 1.73 1.78 1.92 2.07 2.15 2.14 1.96 1.88 1.88 1.94 2.02 2.12 2.12 2.14 2.21 2.37 2.46 2.49 2.67 2.54 2.43 2.37 2.34 2.43 2.58 2.67 2.48 2.43 2.59 2.48 2.24 2.10 1.84 1.65 1.72 1.56
1.54 1.73 1.80 1.82 1.73 1.67 1.76 1.88 1.91 1.97 2.13 2.26 2.21 2.13 2.08 1.97 1.84 1.80 1.85 1.93 2.10 2.27 2.32 2.24 2.34 2.57 2.61 2.60 2.42 2.39 2.51 2.61 2.65 2.57 2.48 2.59 2.61 2.54 2.37 2.15 2.02 1.87 1.70
1.69 1.87 1.93 2.01 2.02 2.02 2.12 2.12 2.04 2.06 2.07 2.21 2.25 2.26 2.22 2.05 1.79 1.83 1.97 1.96 2.13 2.17 2.10 2.00 2.00 2.23 2.46 2.54 2.30 2.29 2.43 2.46 2.46 2.49 2.48 2.53 2.57 2.71 2.59 2.32 2.09 1.94 1.71
1.87 2.16 2.20 2.25 2.23 2.32 2.46 2.52 2.41 2.37 2.45 2.47 2.39 2.32 2.23 1.87 1.97 2.02 2.00 2.02 2.15 2.16 2.10 2.01 1.89 1.88 1.90 2.04 2.14 2.27 2.40 2.37 2.37 2.52 2.67 2.72 2.70 2.72 2.72 2.52 2.25 2.01 1.82
1.98 2.23 2.37 2.43 2.47 2.56 2.67 2.68 2.62 2.66 2.80 2.82 2.70 2.50 2.32 2.23 2.17 1.94 1.88 1.77 1.82 1.87 1.94 1.93 1.65 1.51 1.62 1.54 1.73 1.91 2.02 2.10 2.13 2.29 2.44 2.55 2.68 2.82 2.86 2.62 2.42 2.21 1.96
2.21 2.35 2.45 2.48 2.50 2.56 2.63 2.54 2.57 2.70 2.75 2.78 2.70 2.54 2.40 2.29 2.16 1.84 1.76 1.55 1.57 1.60 1.65 1.67 1.62 1.54 1.52 1.59 1.61 1.59 1.57 1.64 1.78 1.80 1.90 2.16 2.42 2.62 2.78 2.68 2.58 2.28 1.98
2.26 2.30 2.28 2.37 2.48 2.54 2.56 2.58 2.60 2.62 2.50 2.39 2.33 2.31 2.26 2.26 2.19 1.88 1.71 1.50 1.58 1.59 1.60 1.63 1.66 1.58 1.74 1.65 1.58 1.60 1.61 1.62 1.67 1.73 1.74 1.90 2.15 2.32 2.45 2.53 2.48 2.33 2.05
2.31 2.33 2.30 2.41 2.52 2.57 2.63 2.67 2.59 2.49 2.43 2.35 2.21 2.20 2.17 2.13 2.16 1.82 1.65 1.50 1.59 1.61 1.65 1.65 1.65 1.55 1.59 1.49 1.42 1.53 1.52 1.54 1.63 1.64 1.63 1.63 1.72 2.03 2.37 2.23 2.25 2.29 2.06
2.17 2.30 2.45 2.62 2.68 2.69 2.70 2.62 2.53 2.43 2.45 2.43 2.30 2.20 2.15 2.10 2.12 1.85 1.66 1.45 1.60 1.79 1.77 1.69 1.68 1.62 1.33 1.28 1.26 1.27 1.31 1.39 1.51 1.47 1.39 1.39 1.49 1.66 1.92 2.00 2.00 1.99 1.94
1.97 2.10 2.18 2.32 2.41 2.43 2.52 2.47 2.50 2.45 2.36 2.28 2.16 2.04 1.98 2.00 1.90 1.80 1.61 1.45 1.50 1.64 1.72 1.72 1.74 1.62 1.32 1.21 1.11 1.09 1.11 1.08 1.12 1.22 1.25 1.27 1.33 1.46 1.61 1.77 1.87 1.93 1.84
1.82 1.96 2.08 2.14 2.30 2.39 2.45 2.41 2.33 2.26 2.13 2.00 1.91 1.83 1.85 1.90 1.87 1.68 1.47 1.36 1.39 1.44 1.59 1.75 1.64 1.45 1.25 1.08 1.04 1.00 0.95 0.89 1.00 1.14 1.20 1.21 1.22 1.32 1.57 1.85 2.02 2.11 2.05
1.80 1.83 1.92 2.01 2.13 2.34 2.39 2.25 2.09 1.94 1.86 1.83 1.80 1.81 1.88 1.91 1.83 1.64 1.43 1.28 1.30 1.36 1.43 1.50 1.48 1.44 1.34 1.20 1.09 0.97 0.89 0.94 1.04 1.11 1.22 1.35 1.48 1.57 1.64 1.75 1.92 2.00 2.03
1.52 1.50 1.54 1.70 1.86 2.02 2.06 1.98 1.81 1.71 1.80 1.83 1.79 1.77 1.70 1.64 1.71 1.66 1.46 1.36 1.36 1.40 1.34 1.35 1.37 1.46 1.48 1.46 1.41 1.31 1.23 1.21 1.18 1.16 1.30 1.44 1.46 1.47 1.49 1.61 1.80 1.85 1.75
1.54 1.44 1.43 1.43 1.50 1.69 1.90 1.97 1.83 1.62 1.66 1.61 1.55 1.49 1.45 1.42 1.43 1.44 1.38 1.32 1.35 1.36 1.25 1.34 1.48 1.56 1.62 1.63 1.62 1.50 1.36 1.23 1.17 1.21 1.28 1.38 1.43 1.46 1.50 1.63 1.76 1.78 1.64
1.52 1.47 1.40 1.36 1.40 1.52 1.75 1.97 2.02 1.80 1.58 1.46 1.31 1.18 1.13 1.11 1.14 1.20 1.26 1.23 1.22 1.15 1.06 1.21 1.38 1.45 1.51 1.52 1.53 1.46 1.41 1.36 1.35 1.37 1.42 1.48 1.54 1.54 1.56 1.59 1.70 1.75 1.63
1.41 1.40 1.28 1.25 1.32 1.45 1.67 1.94 2.11 2.04 1.83 1.55 1.27 1.08 1.02 0.97 0.99 1.07 1.14 1.10 1.03 0.96 0.88 1.01 1.15 1.27 1.39 1.52 1.58 1.57 1.54 1.52 1.47 1.43 1.50 1.54 1.60 1.65 1.62 1.57 1.63 1.70 1.67
1.32 1.34 1.29 1.25 1.27 1.31 1.54 1.84 2.04 2.09 1.98 1.77 1.42 1.13 1.01 0.94 0.93 1.03 1.03 0.96 0.97 0.95 0.92 0.95 1.01 1.17 1.35 1.51 1.63 1.70 1.72 1.66 1.54 1.52 1.53 1.57 1.57 1.65 1.63 1.56 1.60 1.74 1.74
1.16 1.17 1.07 1.05 1.10 1.13 1.23 1.45 1.72 1.90 1.87 1.77 1.52 1.11 0.84 0.79 0.85 1.01 1.07 1.12 1.12 1.04 1.00 1.02 1.08 1.18 1.36 1.53 1.61 1.64 1.68 1.64 1.59 1.57 1.53 1.58 1.62 1.64 1.60 1.56 1.58 1.67 1.64
1.10 1.09 1.00 0.90 0.95 1.02 1.11 1.31 1.58 1.77 1.74 1.64 1.47 1.14 0.92 0.86 0.97 1.04 1.14 1.20 1.20 1.14 1.11 1.07 1.07 1.14 1.30 1.44 1.52 1.55 1.59 1.56 1.51 1.51 1.51 1.54 1.61 1.65 1.68 1.66 1.62 1.65 1.67
0.91 0.94 0.90 0.87 0.94 0.99 1.03 1.22 1.49 1.64 1.58 1.49 1.41 1.24 1.11 1.08 1.15 1.21 1.22 1.20 1.13 1.06 1.05 1.09 1.10 1.16 1.25 1.32 1.39 1.50 1.56 1.55 1.50 1.47 1.48 1.51 1.57 1.58 1.64 1.68 1.64 1.65 1.68
0.78 0.79 0.78 0.79 0.84 0.91 1.03 1.21 1.36 1.42 1.41 1.40 1.27 1.14 1.13 1.17 1.17 1.20 1.21 1.17 1.10 1.04 1.02 1.06 1.13 1.18 1.24 1.26 1.28 1.36 1.42 1.42 1.43 1.43 1.49 1.54 1.56 1.57 1.62 1.65 1.64 1.69 1.69
0.82 0.87 0.87 0.90 0.93 1.03 1.14 1.24 1.28 1.26 1.22 1.20 1.18 1.18 1.20 1.21 1.16 1.15 1.17 1.16 1.14 1.14 1.14 1.12 1.13 1.12 1.15 1.17 1.18 1.18 1.23 1.24 1.24 1.29 1.35 1.45 1.53 1.54 1.56 1.59 1.60 1.63 1.67
0.74 0.83 0.90 1.01 1.07 1.13 1.19 1.23 1.24 1.21 1.14 1.11 1.12 1.16 1.17 1.14 1.18 1.19 1.17 1.16 1.14 1.11 1.05 1.04 1.03 0.99 0.97 0.96 0.94 0.96 1.07 1.05 1.01 1.04 1.12 1.28 1.37 1.41 1.43 1.50 1.55 1.59 1.65
0.74 0.75 0.83 0.91 0.96 1.04 1.15 1.25 1.24 1.17 1.09 1.08 1.11 1.16 1.14 1.11 1.12 1.12 1.12 1.14 1.14 1.11 1.08 1.05 0.98 0.97 0.96 0.94 0.93 0.98 0.97 0.88 0.85 0.90 0.92 1.03 1.19 1.28 1.35 1.42 1.46 1.58 1.63